Location: Carroll
(32.4774°N, 95.5202°W)
Time: 23:46:26
(UTC+01:00)

Daily predictions for brighter satellites

Satellite Brightness Start Highest point End
(mag) Time Altitude Azimuth Time Altitude Azimuth Time Altitude Azimuth
Meteor 1-14 Rocket 4.1 12:04:11 10° N 12:09:58 85° W 12:15:34 10° S
Cosmos 1656 Rocket 4.2 12:11:37 39° WNW 12:11:37 39° WNW 12:16:36 10° N
Gblst 52 Del rocket 4.3 12:09:38 32° SSW 12:12:21 75° SE 12:18:27 10° NE
CZ-4C R/B 2.9 12:12:59 32° NW 12:12:59 32° NW 12:17:49 10° NNE
GEOS 3 Rocket 3.5 12:11:04 10° SE 12:16:09 87° NE 12:20:41 14° NNW
Cosmos 1954 Rocket 3.9 12:12:02 10° NNW 12:17:19 66° WSW 12:22:34 10° S
S3M 3.9 12:12:40 10° SSW 12:19:01 73° W 12:25:18 10° N
Cosmos 1420 Rocket 4.2 12:19:14 42° W 12:20:00 46° WNW 12:24:59 10° N
COSMO-SKYMED 1 3.6 12:20:33 10° SSE 12:24:41 46° ENE 12:28:51 10° N
Cosmos 1553 Rocket 3.9 12:18:56 10° SSW 12:25:00 62° W 12:31:14 10° N
Cosmos 2219 3.2 12:19:52 10° NNW 12:25:33 83° ENE 12:31:10 10° SSE
Meteor 1-31 Rocket 3.7 12:23:06 10° N 12:25:37 31° NW 12:25:37 31° NW
USA 238 DEB 4.1 12:19:51 10° SSW 12:26:46 66° ESE 12:33:42 10° NE
USA 238 4.1 12:19:56 10° SSW 12:26:51 65° ESE 12:33:47 10° NE
Cosmos 2227 Rocket 4.4 12:23:18 10° N 12:27:55 25° ENE 12:32:30 10° ESE
Meteor 1-25 Rocket 4.2 12:23:10 10° N 12:29:01 83° W 12:34:51 10° S
USA 234 3.8 12:23:32 10° NNE 12:29:31 40° NW 12:32:32 26° W
NOAA 6 3.9 12:28:47 10° N 12:33:55 71° WNW 12:39:00 10° SSW
Chunghua 1 4.4 12:32:50 42° W 12:34:02 85° SSW 12:37:49 10° ESE
Okean 1-7 4.0 12:37:17 26° WNW 12:37:17 26° WNW 12:40:08 10° NNW
ATLAS 3B R/B 3.0 12:39:34 10° SW 12:47:03 59° WNW 12:54:20 10° NNE
Thor Agena Rocket 3.7 12:42:15 10° S 12:47:17 49° W 12:52:17 10° NNW
Cosmos 1110 Rocket 3.9 12:47:12 10° SSW 12:52:21 85° WNW 12:57:33 10° NNE
Meteor 1-10 Rocket 4.3 12:47:53 10° SSW 12:53:18 55° W 12:58:50 10° N
OE (NEXTSAT) 4.3 12:51:27 21° WSW 12:53:42 74° NW 12:57:15 10° NE
Cosmos 1697 Rocket 4.5 12:48:44 10° SSE 12:53:47 35° ESE 12:58:52 10° NE
SKYMED 3 4.5 12:50:20 10° S 12:54:39 74° W 12:58:59 10° NNW
CZ-4 R/B 3.6 12:56:28 10° NE 13:00:07 30° E 13:03:41 10° SSE
Cosmos 1709 Rocket 4.3 12:55:35 10° N 13:01:41 73° E 13:07:49 10° SSE
Meteor 1-28 Rocket 3.1 12:59:06 10° S 13:02:49 79° W 13:06:33 10° NNW
Cosmos 1741 Rocket 4.1 12:59:28 10° NNW 13:04:33 51° WSW 13:09:38 10° S
COSMOS 2455 3.1 12:59:48 10° SSW 13:05:47 75° ESE 13:11:49 10° NNE
CZ-2C R/B 3.7 13:01:34 10° NNE 13:06:23 46° E 13:11:16 10° S
Cosmos 1300 Rocket 3.8 13:05:53 10° N 13:10:18 74° E 13:14:40 10° S
Cosmos 1174 3.7 13:07:42 10° SSW 13:10:36 59° ESE 13:13:46 10° NE
SKYMED 2 3.9 13:08:36 10° S 13:12:42 43° W 13:16:51 10° NNW
Cosmos 1302 Rocket 4.4 13:07:52 10° S 13:13:08 72° ESE 13:18:24 10° NNE
Cosmos 2315 Rocket 4.0 13:08:52 10° SSW 13:15:13 71° W 13:21:34 10° N
Okean 3 3.7 13:11:43 10° S 13:16:00 77° E 13:20:18 10° N
Cosmos 1536 3.6 13:17:35 10° N 13:21:32 57° E 13:25:29 10° SSE
Tiangong 1 3.5 13:21:25 10° NNW 13:22:38 12° N 13:23:51 10° NNE
CSL-04 Rocket 3.7 13:17:32 10° N 13:22:55 69° WNW 13:28:21 10° SSW
Cosmos 1674 Rocket 4.1 13:19:33 10° SSW 13:23:38 38° W 13:27:47 10° NNW
Cosmos 1378 Rocket 3.5 13:19:38 10° S 13:24:01 80° W 13:28:23 10° N
Lacrosse 5 rocket 2.4 13:22:57 10° NNW 13:26:19 37° NE 13:29:41 10° ESE
Meteor 1-27 Rocket 4.1 13:22:14 10° SSW 13:27:45 47° WNW 13:33:24 10° N
Cosmos 1606 4.3 13:26:58 10° WSW 13:29:19 15° WNW 13:31:41 10° NW
Cosmos 2082 4.0 13:24:24 10° NNW 13:30:05 77° ENE 13:35:41 10° SSE
